Time,TemperatureF,DewpointF,PressureIn,WindDirection,WindDirectionDegrees,WindSpeedMPH,WindSpeedGustMPH,Humidity,HourlyPrecipIn,Conditions,Clouds,dailyrainin,SoftwareType,DateUTC
2013-02-28 00:05:00,32.8,27.5,29.99,North,0,0.0,0.0,81,0.00,,,0.00,WUHU216HW,2013-02-28 06:05:00,
2013-02-28 00:30:00,32.6,27.5,29.99,North,0,0.0,0.0,81,0.00,,,0.00,WUHU216HW,2013-02-28 06:30:00,
2013-02-28 00:35:00,32.6,27.5,29.99,North,0,0.0,0.0,81,0.00,,,0.00,WUHU216HW,2013-02-28 06:35:00,
2013-02-28 01:00:00,32.6,27.5,30.00,North,0,0.0,0.0,81,0.00,,,0.00,WUHU216HW,2013-02-28 07:00:00,
2013-02-28 01:05:00,32.6,27.5,30.00,North,0,0.0,0.0,81,0.00,,,0.00,WUHU216HW,2013-02-28 07:05:00,
2013-02-28 01:30:00,32.0,27.2,29.99,WNW,293,2.5,2.5,82,0.00,,,0.00,WUHU216HW,2013-02-28 07:30:00,
2013-02-28 01:35:00,32.0,27.2,29.99,WNW,293,2.5,2.5,82,0.00,,,0.00,WUHU216HW,2013-02-28 07:35:00,
2013-02-28 02:00:00,31.9,27.0,29.99,NW,315,2.2,2.2,82,0.00,,,0.00,WUHU216HW,2013-02-28 08:00:00,
2013-02-28 02:05:00,31.9,27.0,29.99,NW,315,2.2,2.2,82,0.00,,,0.00,WUHU216HW,2013-02-28 08:05:00,
2013-02-28 02:30:00,31.5,26.4,30.00,ENE,68,4.0,4.0,81,0.00,,,0.00,WUHU216HW,2013-02-28 08:30:00,
2013-02-28 02:35:00,31.5,26.4,30.00,ENE,68,4.0,4.0,81,0.00,,,0.00,WUHU216HW,2013-02-28 08:35:00,
2013-02-28 03:00:00,31.3,26.5,30.01,West,270,1.6,1.6,82,0.00,,,0.00,WUHU216HW,2013-02-28 09:00:00,
2013-02-28 03:05:00,31.3,26.5,30.01,West,270,1.6,1.6,82,0.00,,,0.00,WUHU216HW,2013-02-28 09:05:00,
2013-02-28 03:10:00,31.3,26.5,30.01,West,270,1.6,1.6,82,0.00,,,0.00,WUHU216HW,2013-02-28 09:10:00,
2013-02-28 03:30:00,31.3,26.5,30.01,NW,315,0.4,0.4,82,0.00,,,0.00,WUHU216HW,2013-02-28 09:30:00,
2013-02-28 03:35:00,31.3,26.5,30.01,NW,315,0.4,0.4,82,0.00,,,0.00,WUHU216HW,2013-02-28 09:35:00,
2013-02-28 03:59:00,31.3,26.5,30.01,West,270,1.3,1.3,82,0.00,,,0.00,WUHU216HW,2013-02-28 09:59:00,
2013-02-28 04:04:00,31.3,26.5,30.01,West,270,1.3,1.3,82,0.00,,,0.00,WUHU216HW,2013-02-28 10:04:00,
2013-02-28 04:30:00,31.1,26.7,30.01,NNE,23,1.3,1.3,83,0.00,,,0.00,WUHU216HW,2013-02-28 10:30:00,
2013-02-28 04:35:00,31.1,26.7,30.01,NNE,23,1.3,1.3,83,0.00,,,0.00,WUHU216HW,2013-02-28 10:35:00,
2013-02-28 04:59:00,30.6,25.7,30.03,SW,225,0.4,0.4,82,0.00,,,0.00,WUHU216HW,2013-02-28 10:59:00,
2013-02-28 05:05:00,30.6,25.7,30.03,SW,225,0.4,0.4,82,0.00,,,0.00,WUHU216HW,2013-02-28 11:05:00,
2013-02-28 05:30:00,29.7,24.6,30.04,SSW,203,1.1,1.1,81,0.00,,,0.00,WUHU216HW,2013-02-28 11:30:00,
2013-02-28 05:35:00,29.7,24.6,30.04,SSW,203,1.1,1.1,81,0.00,,,0.00,WUHU216HW,2013-02-28 11:35:00,
2013-02-28 05:59:00,29.3,24.9,30.05,WNW,293,2.9,2.9,83,0.00,,,0.00,WUHU216HW,2013-02-28 11:59:00,
2013-02-28 06:04:00,29.3,24.9,30.05,WNW,293,2.9,2.9,83,0.00,,,0.00,WUHU216HW,2013-02-28 12:04:00,
2013-02-28 06:30:00,29.2,24.7,30.06,West,270,0.9,0.9,83,0.00,,,0.00,WUHU216HW,2013-02-28 12:30:00,
2013-02-28 06:35:00,29.2,24.7,30.06,West,270,0.9,0.9,83,0.00,,,0.00,WUHU216HW,2013-02-28 12:35:00,
2013-02-28 06:59:00,28.8,24.3,30.07,NW,315,2.0,2.0,83,0.00,,,0.00,WUHU216HW,2013-02-28 12:59:00,
2013-02-28 07:05:00,28.8,24.3,30.07,NW,315,2.0,2.0,83,0.00,,,0.00,WUHU216HW,2013-02-28 13:05:00,
2013-02-28 07:30:00,28.4,24.0,30.08,East,90,1.8,1.8,83,0.00,,,0.00,WUHU216HW,2013-02-28 13:30:00,
2013-02-28 07:35:00,28.4,24.0,30.08,East,90,1.8,1.8,83,0.00,,,0.00,WUHU216HW,2013-02-28 13:35:00,
2013-02-28 07:59:00,28.6,24.1,30.08,NNW,338,2.0,2.0,83,0.00,,,0.00,WUHU216HW,2013-02-28 13:59:00,
2013-02-28 08:04:00,28.6,24.1,30.08,NNW,338,2.0,2.0,83,0.00,,,0.00,WUHU216HW,2013-02-28 14:04:00,
2013-02-28 08:30:00,28.4,24.2,30.09,NNW,338,2.9,2.9,84,0.00,,,0.00,WUHU216HW,2013-02-28 14:30:00,
2013-02-28 08:35:00,28.4,24.2,30.09,NNW,338,2.9,2.9,84,0.00,,,0.00,WUHU216HW,2013-02-28 14:35:00,
2013-02-28 08:59:00,28.4,24.0,30.10,North,0,0.0,0.0,83,0.00,,,0.00,WUHU216HW,2013-02-28 14:59:00,
2013-02-28 09:04:00,28.4,24.0,30.10,North,0,0.0,0.0,83,0.00,,,0.00,WUHU216HW,2013-02-28 15:04:00,
2013-02-28 09:30:00,29.0,24.5,30.11,North,0,0.0,0.0,83,0.00,,,0.00,WUHU216HW,2013-02-28 15:30:00,
2013-02-28 09:35:00,29.0,24.5,30.11,North,0,0.0,0.0,83,0.00,,,0.00,WUHU216HW,2013-02-28 15:35:00,
2013-02-28 09:59:00,29.5,24.4,30.11,North,0,0.0,0.0,81,0.00,,,0.00,WUHU216HW,2013-02-28 15:59:00,
2013-02-28 10:04:00,29.5,24.4,30.11,North,0,0.0,0.0,81,0.00,,,0.00,WUHU216HW,2013-02-28 16:04:00,
2013-02-28 10:30:00,30.1,24.9,30.12,North,0,0.0,0.0,81,0.00,,,0.00,WUHU216HW,2013-02-28 16:30:00,
2013-02-28 10:35:00,30.1,24.9,30.12,North,0,0.0,0.0,81,0.00,,,0.00,WUHU216HW,2013-02-28 16:35:00,
2013-02-28 10:59:00,30.8,25.4,30.12,North,0,0.0,0.0,80,0.00,,,0.00,WUHU216HW,2013-02-28 16:59:00,
2013-02-28 11:04:00,30.8,25.4,30.12,North,0,0.0,0.0,80,0.00,,,0.00,WUHU216HW,2013-02-28 17:04:00,
2013-02-28 11:30:00,31.3,25.3,30.12,West,270,1.1,1.1,78,0.00,,,0.00,WUHU216HW,2013-02-28 17:30:00,
2013-02-28 11:35:00,31.3,25.3,30.12,West,270,1.1,1.1,78,0.00,,,0.00,WUHU216HW,2013-02-28 17:35:00,
2013-02-28 12:00:00,31.9,25.8,30.13,East,90,2.2,2.2,78,0.00,,,0.00,WUHU216HW,2013-02-28 18:00:00,
2013-02-28 12:04:00,31.9,25.8,30.13,East,90,2.2,2.2,78,0.00,,,0.00,WUHU216HW,2013-02-28 18:04:00,
2013-02-28 12:30:00,31.5,25.5,30.12,WNW,293,1.8,1.8,78,0.00,,,0.00,WUHU216HW,2013-02-28 18:30:00,
2013-02-28 12:35:00,31.5,25.5,30.12,WNW,293,1.8,1.8,78,0.00,,,0.00,WUHU216HW,2013-02-28 18:35:00,
2013-02-28 12:59:00,31.5,25.5,30.12,North,0,0.0,0.0,78,0.00,,,0.00,WUHU216HW,2013-02-28 18:59:00,
2013-02-28 13:04:00,31.5,25.5,30.12,North,0,0.0,0.0,78,0.00,,,0.00,WUHU216HW,2013-02-28 19:04:00,
2013-02-28 13:30:00,31.5,25.5,30.12,North,0,0.0,0.0,78,0.00,,,0.00,WUHU216HW,2013-02-28 19:30:00,
2013-02-28 13:35:00,31.5,25.5,30.12,North,0,0.0,0.0,78,0.00,,,0.00,WUHU216HW,2013-02-28 19:35:00,
2013-02-28 14:00:00,31.7,25.7,30.12,North,0,0.0,0.0,78,0.00,,,0.00,WUHU216HW,2013-02-28 20:00:00,
2013-02-28 14:05:00,31.7,25.7,30.12,North,0,0.0,0.0,78,0.00,,,0.00,WUHU216HW,2013-02-28 20:05:00,
2013-02-28 14:30:00,32.0,26.0,30.12,North,0,0.0,0.0,78,0.00,,,0.00,WUHU216HW,2013-02-28 20:30:00,
2013-02-28 14:35:00,32.0,26.0,30.12,North,0,0.0,0.0,78,0.00,,,0.00,WUHU216HW,2013-02-28 20:35:00,
2013-02-28 15:00:00,31.3,25.6,30.12,North,0,0.0,0.0,79,0.00,,,0.00,WUHU216HW,2013-02-28 21:00:00,
2013-02-28 15:05:00,31.3,25.6,30.12,North,0,0.0,0.0,79,0.00,,,0.00,WUHU216HW,2013-02-28 21:05:00,
2013-02-28 15:30:00,31.3,25.6,30.12,North,0,0.0,0.0,79,0.00,,,0.00,WUHU216HW,2013-02-28 21:30:00,
2013-02-28 15:35:00,31.3,25.6,30.12,North,0,0.0,0.0,79,0.00,,,0.00,WUHU216HW,2013-02-28 21:35:00,
2013-02-28 15:59:00,31.1,25.7,30.12,NNW,338,1.8,1.8,80,0.00,,,0.00,WUHU216HW,2013-02-28 21:59:00,
2013-02-28 16:04:00,31.1,25.7,30.12,NNW,338,1.8,1.8,80,0.00,,,0.00,WUHU216HW,2013-02-28 22:04:00,
2013-02-28 16:30:00,31.0,25.8,30.12,WNW,293,0.7,0.7,81,0.00,,,0.00,WUHU216HW,2013-02-28 22:30:00,
2013-02-28 16:35:00,31.0,25.8,30.12,WNW,293,0.7,0.7,81,0.00,,,0.00,WUHU216HW,2013-02-28 22:35:00,
2013-02-28 16:59:00,31.0,25.6,30.12,WNW,293,1.1,1.1,80,0.00,,,0.00,WUHU216HW,2013-02-28 22:59:00,
2013-02-28 17:04:00,31.0,25.6,30.12,WNW,293,1.1,1.1,80,0.00,,,0.00,WUHU216HW,2013-02-28 23:04:00,
2013-02-28 17:29:00,31.0,25.6,30.12,WNW,293,0.9,0.9,80,0.00,,,0.00,WUHU216HW,2013-02-28 23:29:00,
2013-02-28 17:35:00,31.0,25.6,30.12,WNW,293,0.9,0.9,80,0.00,,,0.00,WUHU216HW,2013-02-28 23:35:00,
2013-02-28 17:59:00,30.6,25.5,30.13,West,270,1.8,1.8,81,0.00,,,0.00,WUHU216HW,2013-02-28 23:59:00,
2013-02-28 18:05:00,30.6,25.5,30.13,West,270,1.8,1.8,81,0.00,,,0.00,WUHU216HW,2013-03-01 00:05:00,
2013-02-28 18:30:00,30.4,25.3,30.13,West,270,0.9,0.9,81,0.00,,,0.00,WUHU216HW,2013-03-01 00:30:00,
2013-02-28 18:35:00,30.4,25.3,30.13,West,270,0.9,0.9,81,0.00,,,0.00,WUHU216HW,2013-03-01 00:35:00,
2013-02-28 18:59:00,30.6,25.7,30.13,West,270,0.4,0.4,82,0.00,,,0.00,WUHU216HW,2013-03-01 00:59:00,
2013-02-28 19:04:00,30.6,25.7,30.13,West,270,0.4,0.4,82,0.00,,,0.00,WUHU216HW,2013-03-01 01:04:00,
2013-02-28 19:30:00,30.1,25.2,30.14,WNW,293,0.4,0.4,82,0.00,,,0.00,WUHU216HW,2013-03-01 01:30:00,
2013-02-28 19:35:00,30.1,25.2,30.14,WNW,293,0.4,0.4,82,0.00,,,0.00,WUHU216HW,2013-03-01 01:35:00,
2013-02-28 19:59:00,29.9,25.0,30.14,NW,315,1.1,1.1,82,0.00,,,0.00,WUHU216HW,2013-03-01 01:59:00,
2013-02-28 20:04:00,29.9,25.0,30.14,NW,315,1.1,1.1,82,0.00,,,0.00,WUHU216HW,2013-03-01 02:04:00,
2013-02-28 20:30:00,29.9,25.0,30.14,West,270,2.5,2.5,82,0.00,,,0.00,WUHU216HW,2013-03-01 02:30:00,
2013-02-28 20:34:00,29.9,25.0,30.14,West,270,2.5,2.5,82,0.00,,,0.00,WUHU216HW,2013-03-01 02:34:00,
2013-02-28 20:59:00,29.7,24.8,30.14,WNW,293,2.7,2.7,82,0.00,,,0.00,WUHU216HW,2013-03-01 02:59:00,
2013-02-28 21:04:00,29.7,24.8,30.14,WNW,293,2.7,2.7,82,0.00,,,0.00,WUHU216HW,2013-03-01 03:04:00,
2013-02-28 21:30:00,29.7,25.2,30.14,West,270,1.8,1.8,83,0.00,,,0.00,WUHU216HW,2013-03-01 03:30:00,
2013-02-28 21:35:00,29.7,25.2,30.14,West,270,1.8,1.8,83,0.00,,,0.00,WUHU216HW,2013-03-01 03:35:00,
2013-02-28 21:59:00,29.5,25.0,30.14,West,270,0.9,0.9,83,0.00,,,0.00,WUHU216HW,2013-03-01 03:59:00,
2013-02-28 22:00:00,29.5,25.0,30.14,West,270,0.9,0.9,83,0.00,,,0.00,WUHU216HW,2013-03-01 04:00:00,
2013-02-28 22:05:00,29.5,25.0,30.14,West,270,0.9,0.9,83,0.00,,,0.00,WUHU216HW,2013-03-01 04:05:00,
2013-02-28 22:30:00,29.7,25.2,30.14,West,270,1.3,1.3,83,0.00,,,0.00,WUHU216HW,2013-03-01 04:30:00,
2013-02-28 22:35:00,29.7,25.2,30.14,West,270,1.3,1.3,83,0.00,,,0.00,WUHU216HW,2013-03-01 04:35:00,
2013-02-28 22:59:00,29.5,25.0,30.13,WNW,293,0.7,0.7,83,0.00,,,0.00,WUHU216HW,2013-03-01 04:59:00,
2013-02-28 23:00:00,29.5,25.0,30.13,WNW,293,0.7,0.7,83,0.00,,,0.00,WUHU216HW,2013-03-01 05:00:00,
2013-02-28 23:01:00,29.5,25.0,30.13,WNW,293,0.7,0.7,83,0.00,,,0.00,WUHU216HW,2013-03-01 05:01:00,
2013-02-28 23:06:00,29.5,25.0,30.13,WNW,293,0.7,0.7,83,0.00,,,0.00,WUHU216HW,2013-03-01 05:06:00,
2013-02-28 23:30:00,29.7,25.2,30.13,West,270,1.1,1.1,83,0.00,,,0.00,WUHU216HW,2013-03-01 05:30:00,
2013-02-28 23:34:00,29.7,25.2,30.13,West,270,1.1,1.1,83,0.00,,,0.00,WUHU216HW,2013-03-01 05:34:00,
2013-02-28 23:59:00,29.5,24.4,30.12,West,270,1.1,1.1,81,0.00,,,0.00,WUHU216HW,2013-03-01 05:59:00,